Temp
-6 -7 -6 -6 -6 -7 -7 -7 -7 -7 -7 -7 -8 -8 -8 -9 -8 -8 -7 -7 -7 -7 -7 -7 -7 -7 -7 -7 -7 -7 -7 -7 -7 -7 -7 -7 -7 -8 -8 -8 -8 -8 -7
-6 -7 -6 -6 -6 -6 -6 -7 -7 -7 -7 -7 -7 -7 -8 -8 -8 -7 -7 -7 -7 -7 -7 -7 -7 -7 -7 -7 -7 -7 -7 -7 -8 -8 -8 -8 -8 -8 -8 -8 -8 -7 -8
-6 -6 -6 -6 -6 -6 -6 -7 -7 -6 -7 -7 -7 -7 -7 -7 -8 -7 -7 -7 -7 -7 -7 -7 -7 -7 -7 -8 -8 -8 -8 -8 -8 -8 -9 -9 -9 -9 -8 -8 -8 -8 -8
-6 -6 -7 -6 -6 -6 -6 -6 -7 -6 -7 -7 -7 -7 -6 -6 -7 -7 -7 -7 -7 -7 -7 -7 -7 -7 -8 -8 -8 -8 -9 -9 -9 -9 -9 -9 -9 -9 -8 -8 -8 -8 -8
-6 -6 -6 -6 -6 -6 -6 -6 -7 -7 -7 -7 -7 -6 -6 -6 -6 -6 -6 -7 -7 -7 -7 -7 -7 -8 -8 -8 -8 -9 -9 -9 -9 -9 -9 -9 -9 -9 -8 -8 -8 -8 -8
-6 -6 -6 -6 -6 -6 -6 -6 -6 -6 -6 -6 -6 -6 -6 -6 -6 -6 -6 -6 -6 -7 -7 -7 -8 -8 -8 -8 -9 -9 -9 -9 -9 -9 -9 -9 -9 -8 -8 -8 -8 -8 -8
-6 -5 -6 -6 -6 -6 -6 -6 -6 -6 -6 -6 -6 -6 -7 -7 -6 -6 -7 -7 -7 -7 -7 -8 -8 -8 -8 -8 -9 -10 -10 -10 -9 -9 -9 -9 -9 -9 -9 -9 -9 -9 -8
-6 -5 -5 -6 -6 -6 -6 -6 -6 -6 -6 -7 -7 -6 -6 -7 -7 -7 -7 -7 -7 -7 -7 -8 -8 -8 -8 -9 -9 -10 -10 -10 -9 -9 -9 -9 -9 -9 -9 -9 -9 -8 -8
-5 -5 -5 -5 -5 -6 -6 -6 -6 -7 -7 -7 -7 -7 -7 -7 -7 -7 -7 -7 -8 -7 -8 -8 -8 -9 -9 -9 -9 -10 -10 -10 -10 -9 -9 -9 -9 -9 -9 -9 -9 -8 -8
-5 -5 -5 -5 -6 -6 -6 -6 -6 -7 -7 -7 -7 -7 -7 -7 -7 -7 -7 -7 -8 -8 -8 -8 -8 -8 -9 -9 -10 -10 -10 -10 -10 -9 -9 -9 -9 -9 -9 -9 -9 -8 -8
-5 -5 -6 -5 -6 -6 -6 -6 -7 -7 -7 -7 -7 -7 -7 -7 -7 -7 -8 -8 -8 -8 -8 -8 -8 -9 -9 -9 -10 -10 -10 -10 -10 -9 -9 -9 -9 -9 -9 -9 -8 -8 -7
-5 -6 -6 -6 -6 -6 -6 -6 -6 -6 -6 -7 -7 -7 -7 -7 -7 -8 -8 -8 -8 -8 -8 -8 -8 -9 -9 -9 -10 -10 -9 -9 -9 -9 -9 -9 -8 -9 -8 -8 -8 -7 -7
-5 -5 -5 -5 -6 -6 -6 -6 -6 -6 -6 -7 -6 -7 -7 -7 -8 -7 -7 -8 -8 -8 -8 -8 -8 -9 -9 -9 -9 -9 -9 -9 -9 -9 -9 -8 -8 -8 -8 -8 -7 -7 -7
-5 -6 -6 -6 -5 -6 -6 -6 -6 -6 -6 -6 -6 -7 -7 -7 -7 -7 -7 -7 -7 -8 -8 -8 -8 -8 -9 -9 -9 -9 -9 -9 -9 -9 -9 -8 -9 -8 -8 -7 -7 -7 -7
-5 -6 -6 -5 -5 -5 -5 -5 -6 -6 -6 -6 -6 -6 -7 -7 -7 -7 -7 -7 -7 -7 -7 -8 -8 -8 -8 -8 -8 -9 -9 -9 -9 -9 -8 -8 -9 -8 -7 -7 -7 -7 -7
-5 -5 -5 -5 -5 -5 -5 -5 -6 -6 -6 -6 -6 -6 -6 -6 -6 -6 -7 -7 -7 -7 -7 -7 -8 -8 -8 -8 -8 -8 -8 -9 -8 -8 -8 -9 -9 -8 -7 -7 -6 -6 -6
-5 -5 -5 -5 -5 -5 -6 -5 -6 -6 -6 -6 -6 -6 -6 -6 -6 -6 -6 -6 -7 -7 -7 -7 -7 -7 -7 -7 -8 -8 -8 -8 -8 -7 -8 -8 -8 -7 -7 -7 -6 -6 -6
-5 -5 -5 -5 -5 -5 -5 -6 -6 -6 -6 -6 -6 -6 -6 -6 -6 -6 -6 -6 -7 -7 -7 -7 -7 -7 -7 -7 -7 -7 -7 -7 -7 -7 -8 -8 -7 -7 -6 -6 -6 -6 -6
-5 -5 -5 -5 -5 -5 -5 -5 -6 -6 -6 -6 -6 -6 -6 -6 -6 -6 -6 -6 -6 -7 -7 -7 -7 -7 -7 -7 -7 -7 -7 -7 -7 -7 -7 -7 -6 -6 -6 -6 -6 -6 -6
-5 -5 -5 -5 -5 -5 -5 -6 -6 -6 -6 -6 -6 -6 -6 -6 -6 -6 -6 -6 -7 -7 -7 -7 -7 -7 -7 -7 -7 -7 -6 -7 -7 -7 -6 -7 -6 -6 -6 -6 -6 -6 -6
-6 -6 -5 -5 -5 -5 -5 -6 -6 -6 -6 -6 -6 -6 -6 -6 -6 -6 -6 -6 -6 -6 -7 -7 -7 -7 -7 -7 -7 -7 -7 -7 -7 -8 -8 -7 -7 -6 -6 -6 -6 -6 -6
-6 -6 -6 -5 -5 -5 -6 -6 -6 -6 -6 -6 -6 -6 -6 -6 -7 -6 -6 -6 -6 -6 -6 -6 -7 -7 -7 -7 -7 -7 -7 -7 -8 -7 -8 -9 -8 -8 -7 -7 -7 -6 -6
-6 -6 -6 -6 -5 -6 -6 -6 -6 -6 -6 -6 -6 -6 -6 -6 -6 -6 -6 -6 -6 -6 -6 -6 -6 -7 -7 -7 -7 -7 -7 -7 -7 -7 -8 -9 -9 -8 -8 -7 -7 -6 -6
-5 -5 -6 -6 -6 -6 -6 -6 -6 -6 -6 -6 -6 -6 -6 -6 -6 -6 -5 -6 -6 -6 -6 -6 -6 -6 -6 -7 -7 -7 -7 -7 -8 -7 -8 -9 -9 -8 -8 -7 -7 -6 -6
-5 -6 -6 -6 -6 -6 -6 -6 -6 -6 -6 -6 -6 -6 -6 -6 -6 -5 -5 -6 -6 -6 -6 -6 -6 -6 -6 -7 -7 -7 -7 -7 -8 -9 -9 -9 -9 -9 -8 -8 -7 -6 -6
-6 -6 -6 -6 -5 -6 -6 -6 -6 -5 -5 -6 -6 -6 -6 -6 -6 -6 -5 -5 -6 -7 -5 -5 -6 -6 -6 -6 -6 -7 -7 -7 -8 -9 -9 -9 -9 -9 -8 -8 -7 -6 -6
Height
5932 5932 5933 5933 5933 5933 5933 5933 5933 5932 5931 5930 5929 5930 5929 5930 5931 5930 5929 5929 5928 5927 5928 5928 5929 5929 5930 5930 5930 5929 5928 5927 5927 5926 5924 5924 5923 5923 5921 5917 5914 5911 5907
5934 5935 5935 5935 5936 5936 5936 5936 5936 5935 5934 5934 5933 5933 5933 5934 5934 5933 5932 5932 5932 5932 5932 5932 5932 5933 5933 5933 5933 5932 5931 5931 5931 5929 5928 5928 5927 5926 5922 5919 5915 5912 5908
5936 5937 5936 5937 5938 5939 5938 5938 5937 5938 5937 5938 5938 5938 5937 5937 5937 5936 5935 5935 5935 5935 5935 5936 5936 5936 5937 5937 5936 5935 5935 5934 5933 5933 5933 5932 5930 5927 5925 5921 5917 5914 5910
5937 5938 5938 5938 5940 5941 5941 5940 5939 5940 5939 5940 5940 5942 5941 5941 5940 5940 5939 5939 5940 5939 5939 5939 5939 5940 5939 5940 5939 5939 5938 5938 5938 5938 5936 5934 5932 5929 5926 5923 5919 5916 5912
5938 5938 5940 5940 5941 5942 5943 5943 5942 5942 5942 5943 5944 5944 5942 5942 5942 5943 5943 5942 5943 5943 5943 5943 5943 5943 5942 5942 5942 5942 5942 5943 5942 5941 5939 5936 5934 5931 5928 5925 5922 5918 5913
5938 5939 5940 5943 5943 5944 5944 5945 5945 5945 5945 5946 5946 5945 5945 5945 5946 5946 5946 5945 5945 5945 5946 5946 5946 5946 5946 5946 5946 5946 5946 5946 5945 5943 5941 5939 5936 5933 5931 5927 5923 5919 5915
5940 5940 5942 5944 5944 5944 5945 5946 5947 5947 5947 5947 5948 5948 5948 5949 5950 5950 5950 5949 5948 5948 5948 5949 5949 5949 5949 5949 5949 5950 5949 5948 5947 5946 5944 5942 5939 5936 5933 5930 5925 5921 5916
5941 5943 5944 5945 5947 5947 5948 5948 5949 5949 5949 5948 5950 5950 5951 5952 5952 5953 5954 5953 5952 5952 5951 5952 5952 5953 5953 5952 5952 5952 5952 5951 5950 5949 5947 5945 5942 5939 5935 5931 5928 5923 5917
5943 5944 5946 5947 5948 5948 5949 5949 5950 5949 5950 5951 5951 5953 5953 5954 5955 5955 5956 5956 5955 5956 5955 5954 5955 5955 5955 5955 5955 5955 5954 5954 5952 5951 5950 5947 5944 5941 5937 5933 5928 5924 5919
5944 5946 5947 5948 5949 5950 5951 5951 5951 5952 5952 5952 5953 5954 5955 5955 5956 5957 5958 5958 5958 5958 5958 5958 5958 5958 5958 5958 5957 5957 5957 5956 5954 5953 5952 5950 5946 5943 5939 5935 5930 5927 5921
5945 5946 5949 5950 5950 5951 5952 5952 5952 5953 5953 5954 5954 5955 5957 5957 5958 5959 5959 5959 5960 5961 5961 5962 5962 5963 5962 5962 5961 5961 5959 5958 5957 5955 5953 5951 5949 5944 5940 5937 5933 5929 5924
5946 5946 5949 5951 5952 5952 5952 5953 5953 5955 5954 5955 5956 5956 5957 5959 5960 5960 5960 5960 5962 5963 5963 5964 5965 5965 5965 5964 5964 5963 5962 5960 5958 5957 5954 5953 5950 5945 5942 5939 5934 5931 5926
5946 5947 5950 5951 5952 5953 5953 5954 5954 5954 5955 5956 5957 5957 5958 5959 5961 5961 5962 5962 5962 5964 5965 5966 5966 5967 5967 5966 5966 5965 5963 5962 5960 5958 5956 5953 5950 5947 5944 5940 5936 5932 5927
5945 5947 5951 5952 5951 5952 5952 5953 5954 5955 5956 5956 5957 5959 5959 5960 5963 5962 5962 5963 5964 5965 5966 5967 5967 5968 5968 5967 5966 5965 5965 5963 5961 5960 5958 5954 5951 5948 5945 5941 5937 5934 5929
5945 5947 5950 5951 5952 5952 5953 5954 5955 5956 5956 5956 5958 5960 5960 5961 5963 5963 5964 5965 5966 5966 5967 5968 5968 5968 5968 5968 5967 5966 5966 5964 5963 5962 5959 5955 5952 5950 5947 5943 5939 5935 5930
5944 5946 5949 5951 5952 5952 5954 5954 5955 5956 5956 5957 5958 5959 5960 5961 5962 5963 5965 5966 5966 5967 5967 5968 5968 5968 5968 5968 5967 5967 5966 5965 5964 5962 5958 5955 5954 5951 5947 5943 5939 5935 5930
5943 5945 5947 5948 5950 5951 5953 5954 5955 5955 5957 5958 5958 5958 5960 5961 5962 5963 5965 5966 5967 5967 5968 5968 5968 5968 5969 5968 5968 5967 5966 5965 5964 5962 5958 5956 5954 5951 5948 5944 5940 5935 5931
5940 5943 5944 5945 5947 5949 5951 5952 5954 5955 5956 5957 5957 5958 5958 5959 5961 5962 5963 5964 5966 5966 5967 5968 5968 5968 5968 5968 5967 5966 5966 5965 5963 5960 5957 5956 5954 5950 5947 5944 5939 5935 5931
5937 5940 5942 5943 5944 5946 5949 5950 5952 5954 5955 5956 5956 5956 5957 5958 5959 5961 5962 5963 5964 5965 5966 5966 5966 5966 5967 5967 5966 5966 5965 5963 5961 5959 5957 5955 5952 5950 5946 5942 5938 5934 5929
5932 5935 5938 5940 5941 5943 5945 5947 5949 5951 5953 5954 5955 5955 5956 5956 5957 5958 5959 5961 5962 5962 5963 5964 5964 5964 5965 5965 5964 5963 5962 5961 5959 5958 5955 5953 5950 5948 5945 5940 5936 5932 5928
5927 5929 5932 5935 5937 5939 5941 5943 5944 5946 5949 5951 5952 5953 5953 5953 5954 5956 5957 5957 5958 5959 5960 5960 5961 5961 5961 5962 5961 5961 5960 5959 5957 5956 5953 5951 5947 5945 5943 5938 5934 5931 5927
5922 5924 5927 5930 5932 5934 5936 5938 5939 5941 5944 5946 5948 5949 5949 5950 5950 5951 5952 5953 5954 5955 5956 5957 5957 5958 5957 5958 5958 5957 5957 5956 5954 5953 5952 5948 5945 5942 5938 5935 5932 5929 5925
5914 5919 5921 5924 5927 5929 5931 5933 5934 5936 5938 5941 5943 5945 5946 5946 5946 5946 5948 5949 5950 5950 5950 5951 5952 5952 5953 5954 5954 5954 5954 5954 5952 5950 5949 5946 5942 5940 5936 5932 5929 5926 5923
5906 5911 5915 5917 5920 5923 5924 5926 5928 5931 5933 5935 5938 5940 5941 5941 5941 5942 5943 5944 5945 5945 5945 5946 5948 5947 5949 5947 5948 5949 5949 5949 5947 5946 5944 5942 5939 5935 5932 5928 5925 5923 5920
5896 5902 5905 5908 5913 5917 5917 5919 5921 5924 5927 5929 5931 5933 5935 5936 5936 5937 5938 5939 5939 5940 5939 5940 5940 5941 5942 5941 5942 5943 5944 5944 5943 5941 5940 5939 5936 5932 5929 5925 5922 5919 5917
5887 5890 5896 5901 5905 5909 5910 5913 5914 5917 5922 5924 5925 5927 5929 5931 5930 5930 5932 5933 5934 5934 5933 5933 5935 5936 5936 5936 5937 5939 5938 5938 5938 5938 5936 5934 5932 5929 5927 5923 5918 5915 5914
Wind_Speed
12 12 13 13 13 15 14 12 14 15 14 15 14 13 15 11 15 17 17 20 23 25 28 28 26 25 25 24 22 20 21 20 20 20 20 21 22 22 22 25 28 30 31
11 11 11 12 12 13 15 13 14 15 14 14 13 12 12 12 17 19 20 22 25 26 26 26 24 24 23 21 20 20 19 19 19 20 22 24 23 23 27 29 29 29 28
7 9 9 11 11 12 13 14 12 15 15 13 12 11 12 13 13 19 21 22 23 23 23 22 22 21 21 20 20 21 19 20 22 24 24 23 24 25 25 26 27 28 28
4 7 7 7 11 11 12 13 10 13 14 12 11 11 13 15 15 16 19 20 18 19 19 19 20 22 21 21 22 22 23 24 24 22 22 23 24 24 25 26 26 28 28
4 5 7 7 9 10 12 14 12 10 11 11 10 12 14 15 16 16 15 17 17 18 20 21 21 21 23 22 23 24 23 23 21 21 23 23 23 25 26 26 28 29 30
3 5 7 8 10 12 12 14 13 11 11 10 11 14 16 17 18 18 19 19 19 20 20 21 20 22 22 24 23 23 22 21 19 21 22 22 24 24 26 28 29 31 33
4 5 7 9 12 13 12 11 10 11 10 10 9 13 15 15 15 15 15 18 20 20 19 19 22 20 21 21 22 21 20 19 20 21 22 23 24 26 27 29 31 33 35
8 9 10 10 10 12 10 10 9 11 10 9 7 10 12 14 13 13 12 14 16 17 17 20 20 18 19 20 20 20 19 19 18 19 22 23 24 26 27 30 32 35 37
11 11 11 11 11 10 9 8 9 9 9 10 10 9 9 11 11 11 10 11 14 16 18 20 19 18 18 18 17 18 17 14 15 18 21 21 24 27 28 31 33 35 38
11 11 11 12 12 10 10 8 9 8 8 9 12 11 9 12 11 9 8 7 11 14 16 17 18 18 17 15 15 14 13 12 13 17 19 20 22 25 27 32 33 35 37
12 12 10 10 11 9 10 8 8 7 9 8 12 12 10 12 10 9 8 8 8 12 15 16 16 15 14 13 12 11 10 10 12 16 17 20 22 21 24 32 32 34 36
13 11 9 8 8 8 7 6 6 7 10 9 13 14 11 11 10 8 9 12 11 15 16 16 14 12 10 10 9 9 10 11 13 15 19 19 22 21 29 30 31 33 35
14 12 9 8 8 8 7 6 4 7 10 9 11 14 14 10 11 10 11 15 17 18 17 14 11 9 7 7 7 8 10 11 13 16 18 22 26 27 27 29 30 33 35
15 10 8 7 6 7 6 6 5 5 8 10 10 11 13 12 10 11 10 14 17 19 17 13 10 7 6 7 7 7 7 10 14 16 17 23 27 29 29 31 32 34 35
12 11 9 5 5 4 7 7 6 5 8 9 8 11 12 11 9 10 10 11 13 14 12 9 7 6 5 5 6 6 7 10 12 12 18 23 27 27 29 31 31 34 36
14 12 10 7 6 7 7 7 5 5 5 8 9 9 11 10 9 10 10 11 11 10 9 7 6 4 3 3 4 4 5 8 9 12 18 21 23 25 29 30 30 32 35
16 14 12 9 8 7 9 7 6 5 3 3 5 8 9 9 9 8 8 8 9 8 7 7 5 3 2 1 1 3 6 7 10 12 16 19 22 23 26 29 29 30 33
19 18 14 12 11 8 8 8 6 4 3 3 3 3 7 9 9 9 10 9 9 9 8 6 5 3 3 2 3 4 6 8 9 12 16 18 21 24 26 28 29 29 31
23 20 18 16 15 13 11 10 10 9 6 5 4 4 5 7 10 11 12 13 11 10 11 10 9 8 6 6 7 9 9 13 13 14 17 18 21 25 27 28 31 31 32
27 25 23 21 20 17 16 15 14 13 11 8 7 7 8 8 9 13 15 15 16 15 13 12 12 12 11 10 11 11 12 13 16 17 21 22 24 26 27 28 30 31 32
28 27 26 24 23 22 21 19 19 18 16 13 11 10 10 11 12 13 16 19 19 19 18 17 16 16 16 14 14 15 16 16 20 19 22 23 26 28 27 27 28 29 30
31 30 27 26 26 25 24 24 23 22 20 18 16 14 13 13 15 16 17 18 21 22 22 21 20 19 21 18 17 19 18 18 19 21 19 23 27 30 30 28 27 28 28
36 33 32 30 27 25 25 26 26 24 23 21 20 18 16 16 17 17 18 20 20 23 25 25 24 25 24 23 22 21 20 20 20 21 20 23 29 30 31 28 26 26 27
41 39 36 34 32 29 28 27 27 26 25 24 23 22 20 19 19 19 19 20 21 22 25 27 26 29 26 28 25 21 20 19 19 21 21 23 27 31 33 27 26 25 24
45 42 41 40 37 34 33 31 29 26 25 25 25 24 23 22 22 22 21 21 22 23 25 26 29 29 27 28 25 21 21 18 19 21 22 22 27 29 30 30 25 24 23
47 47 45 42 40 38 38 36 33 29 25 25 27 25 25 24 26 26 24 25 23 23 25 25 25 29 32 31 28 24 22 21 22 21 23 23 28 28 29 31 25 23 23
Wind_Direction
88 90 87 90 88 90 95 88 75 92 91 91 89 88 94 94 100 97 103 107 107 107 108 108 105 102 99 94 90 85 82 77 75 74 70 68 66 59 55 45 37 31 25
97 80 92 87 84 85 85 88 78 85 89 89 85 81 85 103 113 113 112 114 110 106 104 102 101 99 95 91 87 84 81 80 76 72 71 71 65 56 43 36 29 26 20
95 94 98 96 91 91 83 87 85 89 86 83 88 87 91 109 112 121 119 116 115 112 109 104 99 95 92 90 88 85 81 79 78 78 74 65 53 44 38 32 27 23 22
80 98 110 92 97 90 87 88 90 88 93 92 87 84 92 110 116 118 115 116 113 110 106 104 101 98 95 92 85 84 86 86 84 75 65 56 45 37 37 32 29 26 26
103 77 93 108 99 93 92 101 106 100 104 103 103 92 84 95 106 110 110 112 113 115 112 106 104 102 99 92 91 92 88 81 75 65 56 49 43 37 34 30 30 29 27
82 52 90 101 109 106 102 104 114 115 117 110 107 99 99 97 98 100 103 106 110 113 112 110 109 107 94 95 94 90 84 76 66 55 50 42 39 37 35 32 28 26 24
107 120 110 99 106 104 99 105 112 115 116 109 102 109 111 104 101 101 102 107 111 114 115 114 117 106 102 99 94 89 81 70 57 49 45 41 39 36 33 30 26 23 21
135 136 120 123 123 121 126 126 124 113 107 108 109 107 117 113 106 104 104 111 115 119 121 124 120 115 112 103 97 91 81 69 57 49 44 42 38 35 31 27 25 23 20
135 133 128 125 128 120 126 121 115 104 116 128 133 123 118 113 115 105 106 117 120 123 129 131 124 118 109 101 94 87 80 63 45 46 43 41 36 32 27 25 22 20 20
135 128 123 123 122 130 120 121 97 97 126 125 119 118 130 120 114 106 112 125 132 136 136 132 124 120 114 106 100 91 77 52 44 41 39 38 31 27 27 22 18 18 18
134 124 125 122 122 114 113 114 100 100 107 132 128 128 132 119 111 109 108 105 134 149 137 129 124 118 112 100 92 80 63 46 40 33 31 30 28 20 28 19 16 16 16
144 131 127 119 115 115 109 105 106 103 104 138 141 135 131 129 126 123 125 122 133 138 133 134 123 112 99 94 88 70 53 42 33 29 26 24 27 24 25 14 12 12 14
155 140 152 143 127 124 119 116 110 106 117 134 144 144 137 139 150 140 137 136 135 140 139 133 118 109 104 98 74 54 44 35 32 27 19 22 22 17 15 14 12 11 11
167 164 178 156 123 117 117 115 111 117 123 137 146 149 143 143 171 141 137 137 137 143 146 141 134 129 118 102 79 55 35 29 27 19 16 21 18 11 10 11 10 10 10
192 182 197 168 135 130 130 131 125 133 133 132 144 146 152 143 151 144 141 145 149 148 145 135 124 118 107 86 68 46 23 25 18 9 22 20 12 5 7 6 6 7 7
204 195 203 188 165 154 160 152 143 117 119 142 148 154 161 155 160 156 152 158 162 163 157 150 148 141 130 105 66 34 14 17 5 8 18 13 1 1 3 2 2 4 4
207 214 210 199 194 172 169 162 152 145 155 135 156 167 165 171 168 171 171 180 184 185 188 180 172 167 178 110 25 351 356 352 1 352 7 358 351 357 358 359 357 359 0
213 217 218 211 213 207 190 181 189 187 189 210 190 183 196 187 187 190 194 197 206 206 206 208 204 212 227 259 291 311 314 321 339 341 348 338 339 347 352 356 353 355 355
223 222 222 217 218 222 228 212 207 216 218 236 245 234 240 218 208 201 208 210 216 219 223 223 227 240 251 266 279 293 306 314 330 329 325 327 334 340 346 350 350 350 352
224 222 225 226 226 225 228 231 226 227 227 231 247 254 249 246 237 222 218 220 221 224 228 234 237 242 248 256 268 277 289 300 308 313 317 326 326 333 339 342 343 347 348
229 230 227 230 232 235 232 232 236 235 233 234 243 252 255 251 246 242 231 227 227 233 235 239 243 249 258 261 269 276 281 291 298 304 309 322 324 325 333 334 337 340 342
225 231 232 233 232 232 236 236 237 239 238 237 242 253 258 258 251 247 247 243 235 238 243 248 251 252 256 263 267 269 275 279 285 302 311 319 319 328 329 329 331 334 338
223 225 229 232 234 232 234 237 239 240 241 241 242 249 259 263 260 252 250 253 252 246 245 246 249 254 258 263 267 269 273 280 285 298 310 315 318 328 336 330 327 330 335
224 223 226 229 231 233 234 237 240 240 242 241 243 247 253 261 265 261 259 258 257 257 254 249 245 254 258 265 266 268 270 274 281 298 304 312 323 330 339 332 326 326 331
224 225 224 226 228 230 234 238 242 242 241 243 243 246 250 257 265 264 262 262 261 260 260 256 249 248 254 261 267 266 269 276 284 290 296 312 315 321 334 335 322 321 328
224 224 226 226 228 229 233 235 240 244 241 244 248 248 251 254 258 265 263 263 266 262 265 265 260 253 252 256 262 264 266 273 282 282 293 301 304 313 329 335 322 317 320